Vorticity
4 5 6 5 6 6 6 6 6 6 6 6 6 6 6 6 5 5 5 4 4 4 5 5 4 5 4 3 3 2 1 2 2 1 1 2 2 1 1 1 2 2 2 2 3 3 3 4 4 5 14 13
4 4 5 5 5 5 5 6 5 5 5 6 6 6 5 6 7 6 6 6 5 5 4 4 4 5 5 5 6 4 2 3 2 2 2 2 2 1 1 1 1 2 2 2 2 2 2 3 2 3 6 -2
5 5 5 6 5 5 6 6 6 5 5 6 6 6 5 6 6 7 7 6 6 6 6 6 5 5 5 5 6 6 5 5 4 3 2 2 2 1 2 1 2 2 2 2 2 2 2 2 2 1 1 -0
5 5 6 6 6 6 6 6 7 6 6 6 6 6 5 5 6 6 6 6 6 6 6 6 6 6 6 6 6 6 6 7 7 6 5 4 3 2 2 2 2 3 2 2 2 2 1 2 2 1 1 2
5 5 5 5 5 6 6 6 7 7 7 7 7 7 6 6 6 6 6 6 6 6 6 6 6 6 6 6 6 7 6 6 6 7 8 8 7 6 5 4 3 3 3 3 2 2 2 2 2 1 1 1
4 4 4 4 4 4 4 5 6 6 6 7 8 7 7 7 7 7 6 6 6 6 6 6 6 6 6 6 6 6 7 6 6 6 6 7 7 8 8 8 7 5 5 4 3 3 2 2 2 2 2 1
3 3 3 4 4 4 4 4 5 5 5 5 6 6 6 7 7 7 7 7 7 7 6 6 6 6 6 6 6 6 6 6 6 7 7 7 7 7 7 7 8 8 8 7 6 6 5 4 4 4 4 3
2 2 2 3 3 3 4 4 4 4 4 5 5 5 6 6 7 7 7 7 8 8 7 7 6 6 7 6 6 7 7 7 7 7 7 7 8 8 7 7 7 8 8 9 9 9 8 8 7 6 6 6
1 2 3 3 4 4 4 4 4 4 4 5 5 5 6 6 7 7 7 8 8 8 8 8 7 7 7 7 7 7 7 7 7 7 7 8 8 8 9 8 8 8 8 8 9 9 9 9 10 9 7 7
2 2 3 4 5 5 5 5 5 5 5 5 5 5 6 6 7 7 7 8 9 9 8 9 9 8 8 8 7 7 7 7 7 7 7 7 8 8 8 8 9 9 8 8 8 9 9 9 9 10 9 9
3 3 4 5 5 5 5 5 6 6 6 7 7 7 7 7 7 7 7 8 9 9 9 9 9 9 9 9 8 8 7 7 8 8 7 7 7 8 7 8 8 9 9 8 8 8 9 9 9 9 9 10
4 5 5 6 6 6 6 6 7 7 7 7 7 7 7 8 8 8 8 8 8 8 9 9 9 10 10 10 9 9 9 8 8 8 8 8 7 8 8 8 8 9 9 9 9 9 9 9 9 10 9 9
6 6 6 6 6 6 6 6 6 6 6 7 7 7 8 8 9 9 9 9 9 9 9 9 9 10 10 10 10 10 10 9 9 9 8 8 8 8 8 8 8 8 9 9 9 10 10 9 10 10 10 9
6 6 5 5 5 5 5 5 6 6 6 7 7 7 8 8 9 9 9 10 10 10 9 10 10 10 10 10 10 10 9 9 8 8 9 8 8 8 7 8 8 8 8 9 8 8 9 9 9 9 9 10
5 6 5 5 5 5 6 6 6 7 7 8 8 8 8 8 8 8 9 9 10 10 10 10 10 11 11 11 10 10 9 9 8 8 8 8 8 8 8 8 8 8 8 9 8 8 8 8 8 8 8 8
5 5 5 6 6 6 7 8 8 8 8 9 9 9 10 10 10 9 9 10 10 10 10 11 11 11 12 12 11 12 11 11 10 9 9 8 8 8 8 8 8 8 8 8 9 8 8 7 8 7 7 7
6 6 6 7 7 8 9 9 9 10 11 11 11 11 11 11 11 11 11 11 11 11 11 12 12 12 13 13 13 13 13 13 12 11 10 10 9 8 8 8 8 9 8 9 9 9 9 8 8 8 8 8
8 8 9 9 10 10 10 11 11 12 12 12 12 12 12 12 12 12 12 12 12 12 12 12 12 12 13 13 13 14 14 14 14 13 13 11 11 10 9 9 9 10 10 10 9 10 9 9 9 9 9 9
10 10 11 12 13 13 13 14 14 14 14 14 14 13 13 13 13 13 13 13 13 13 14 13 13 13 13 13 13 14 14 14 14 14 13 12 12 12 11 10 10 10 10 10 10 10 10 10 10 10 10 10
12 13 14 15 16 17 18 18 18 18 17 17 16 16 15 15 15 15 15 15 16 15 15 15 14 14 13 13 13 13 12 12 13 12 12 12 12 12 12 11 11 11 10 10 10 10 10 10 10 10 10 10
13 14 15 16 16 17 17 17 17 16 16 16 16 16 17 17 17 17 17 17 17 17 17 17 17 17 16 14 13 12 11 12 12 11 10 11 11 11 12 11 11 11 11 11 10 11 11 10 11 10 10 10
14 15 15 15 15 15 15 14 14 13 14 14 14 15 15 15 15 16 17 17 17 17 17 17 17 17 17 17 16 14 13 13 12 11 11 11 11 11 11 11 11 11 11 11 10 11 11 10 10 10 10 10
17 17 17 17 17 16 16 15 15 14 14 14 14 14 14 14 14 15 16 16 16 16 15 15 15 15 15 16 16 16 15 14 13 14 13 13 13 13 13 12 11 11 11 11 11 11 11 11 11 11 11 10
17 18 19 18 17 16 16 15 16 15 14 15 15 14 14 14 15 15 16 16 16 17 17 17 16 15 15 14 14 15 15 14 14 14 15 14 14 14 14 14 14 14 13 13 12 12 13 13 13 13 14 14
17 18 18 16 15 15 14 13 14 14 14 14 14 14 13 13 14 13 13 13 14 14 15 15 16 16 16 16 15 15 15 14 14 14 15 15 16 15 14 14 15 16 16 16 15 15 14 14 14 15 15 16
19 19 17 14 14 13 12 11 12 12 13 14 13 13 13 13 13 12 11 11 12 14 14 15 15 15 15 14 14 14 14 14 13 13 14 14 15 16 16 15 14 13 14 16 16 16 15 15 15 15 14 14
20 20 17 16 14 12 11 11 11 11 13 13 13 13 14 16 16 15 15 15 16 16 15 14 14 14 13 13 13 13 14 14 13 13 13 12 12 12 13 15 15 13 12 12 13 13 14 15 14 13 13 13
20 19 17 17 15 14 13 12 12 11 11 10 10 11 12 13 13 14 15 16 17 17 16 15 13 12 13 13 13 12 13 14 15 14 14 13 12 10 9 10 11 12 11 11 11 11 11 12 13 13 12 11
17 17 18 18 16 17 17 15 14 12 11 9 9 9 8 9 9 9 10 10 11 11 13 15 14 13 12 11 11 11 11 12 14 15 15 15 14 12 10 8 8 9 8 8 7 7 6 6 8 9 10 10
13 14 16 17 17 17 17 15 15 13 12 12 11 11 11 11 11 10 9 8 7 6 6 8 11 13 13 12 11 11 10 10 10 12 14 15 14 13 13 12 11 12 12 11 10 9 9 7 7 8 10 11
10 11 13 14 14 14 14 14 14 13 13 12 11 10 10 10 11 11 11 10 10 9 8 7 8 9 11 12 12 11 11 10 9 9 10 11 12 12 11 11 12 12 13 13 13 13 13 12 11 10 11 12
Height
5841 5840 5839 5837 5836 5834 5833 5831 5829 5828 5826 5824 5823 5821 5819 5818 5817 5815 5814 5812 5811 5810 5808 5807 5806 5805 5803 5803 5802 5800 5799 5799 5797 5796 5795 5794 5793 5792 5790 5789 5789 5788 5786 5785 5784 5783 5781 5779 5779 5777 5774 5772
5838 5837 5835 5833 5832 5830 5828 5826 5825 5823 5822 5820 5818 5816 5814 5813 5812 5810 5809 5807 5806 5804 5803 5802 5801 5800 5798 5798 5796 5795 5794 5793 5792 5791 5790 5789 5788 5787 5786 5785 5784 5783 5782 5781 5780 5778 5777 5776 5774 5773 5770 5769
5834 5833 5831 5829 5827 5825 5824 5822 5820 5818 5817 5815 5813 5812 5810 5808 5807 5805 5804 5802 5800 5799 5797 5796 5795 5794 5793 5792 5790 5789 5788 5787 5787 5785 5785 5784 5782 5781 5780 5779 5779 5778 5777 5776 5775 5773 5773 5771 5770 5768 5767 5766
5830 5828 5826 5825 5823 5821 5819 5817 5815 5813 5812 5810 5808 5806 5805 5803 5801 5800 5798 5796 5795 5794 5792 5790 5789 5788 5787 5785 5784 5783 5782 5782 5781 5779 5779 5778 5777 5776 5775 5774 5773 5772 5772 5771 5770 5768 5767 5767 5765 5763 5762 5761
5825 5823 5821 5820 5818 5816 5814 5812 5810 5808 5806 5805 5803 5801 5799 5798 5796 5794 5792 5791 5789 5788 5787 5785 5783 5782 5781 5779 5778 5777 5776 5775 5774 5773 5772 5771 5770 5769 5768 5768 5767 5766 5765 5765 5764 5763 5761 5761 5760 5758 5756 5755
5821 5819 5817 5815 5813 5811 5809 5807 5805 5803 5801 5799 5797 5795 5793 5792 5790 5788 5787 5785 5783 5782 5781 5779 5777 5776 5774 5773 5772 5770 5769 5769 5768 5767 5766 5765 5763 5762 5762 5761 5760 5759 5759 5758 5757 5756 5755 5755 5754 5753 5752 5750
5817 5815 5813 5811 5808 5806 5804 5801 5799 5797 5795 5793 5791 5789 5787 5785 5784 5782 5780 5779 5777 5776 5774 5772 5771 5770 5768 5767 5765 5764 5763 5762 5761 5760 5759 5758 5757 5755 5755 5754 5753 5752 5752 5751 5750 5749 5749 5748 5747 5747 5746 5745
5812 5810 5808 5805 5803 5801 5798 5796 5793 5791 5789 5787 5785 5783 5781 5779 5777 5776 5774 5772 5771 5769 5767 5766 5765 5763 5761 5760 5758 5757 5756 5755 5754 5753 5752 5751 5750 5748 5747 5747 5746 5745 5744 5744 5743 5742 5742 5741 5740 5740 5739 5738
5807 5805 5802 5800 5797 5795 5793 5790 5787 5785 5782 5780 5778 5776 5774 5772 5771 5769 5767 5766 5764 5762 5760 5759 5758 5756 5755 5753 5752 5751 5749 5748 5747 5746 5745 5744 5742 5741 5740 5739 5739 5738 5737 5736 5736 5735 5734 5734 5733 5733 5732 5732
5802 5799 5797 5794 5791 5789 5786 5784 5781 5779 5776 5773 5771 5769 5767 5765 5763 5762 5760 5759 5757 5755 5753 5752 5751 5749 5748 5746 5745 5744 5743 5741 5740 5739 5738 5737 5735 5734 5733 5732 5731 5731 5730 5729 5728 5728 5727 5727 5726 5725 5725 5724
5796 5793 5790 5788 5785 5782 5779 5777 5775 5772 5770 5767 5764 5762 5760 5758 5756 5754 5752 5751 5749 5748 5746 5745 5744 5742 5741 5739 5738 5737 5736 5734 5733 5732 5731 5730 5728 5727 5726 5725 5724 5723 5723 5722 5721 5721 5720 5720 5719 5718 5718 5717
5790 5787 5784 5781 5778 5775 5773 5770 5768 5765 5763 5760 5758 5755 5753 5751 5749 5747 5745 5743 5741 5740 5738 5737 5736 5735 5734 5732 5731 5730 5729 5727 5726 5725 5724 5723 5721 5720 5719 5718 5717 5716 5716 5715 5714 5713 5713 5713 5712 5711 5711 5710
5783 5781 5778 5775 5772 5769 5766 5764 5761 5758 5756 5753 5751 5748 5746 5744 5742 5740 5738 5735 5734 5732 5730 5729 5728 5727 5726 5725 5724 5723 5721 5720 5719 5718 5717 5716 5714 5714 5713 5711 5710 5709 5708 5707 5707 5706 5706 5705 5705 5704 5704 5703
5777 5774 5771 5768 5765 5762 5759 5757 5754 5751 5748 5746 5743 5741 5738 5736 5734 5732 5730 5728 5726 5724 5723 5721 5720 5719 5718 5717 5716 5715 5714 5713 5712 5711 5709 5709 5707 5706 5705 5704 5703 5702 5701 5700 5700 5699 5698 5698 5698 5697 5696 5696
5770 5767 5765 5761 5758 5755 5752 5749 5746 5744 5741 5738 5736 5733 5731 5728 5726 5724 5722 5720 5718 5717 5715 5714 5712 5711 5710 5709 5708 5707 5706 5705 5705 5703 5702 5701 5700 5699 5698 5697 5696 5695 5694 5693 5692 5692 5691 5690 5690 5690 5689 5689
5764 5761 5758 5755 5752 5748 5745 5742 5739 5736 5733 5730 5728 5725 5723 5721 5719 5717 5715 5713 5711 5709 5708 5706 5704 5703 5702 5701 5700 5699 5698 5697 5697 5696 5694 5693 5693 5691 5690 5690 5689 5688 5687 5686 5685 5684 5683 5683 5682 5682 5682 5682
5758 5754 5751 5748 5744 5740 5737 5734 5731 5728 5725 5722 5720 5717 5715 5713 5711 5709 5707 5705 5703 5701 5700 5698 5696 5695 5694 5693 5692 5691 5690 5689 5689 5688 5687 5686 5685 5684 5683 5682 5682 5681 5680 5679 5678 5677 5676 5676 5675 5675 5675 5674
5751 5747 5744 5740 5736 5732 5729 5726 5723 5720 5717 5714 5712 5710 5707 5705 5703 5701 5699 5697 5695 5693 5692 5690 5689 5687 5686 5685 5684 5683 5682 5682 5681 5680 5679 5678 5677 5676 5675 5675 5674 5674 5673 5672 5671 5670 5669 5669 5668 5667 5667 5667
5743 5739 5736 5732 5728 5724 5721 5718 5715 5712 5709 5707 5704 5702 5699 5697 5695 5693 5691 5689 5687 5686 5684 5682 5681 5680 5679 5677 5677 5676 5675 5674 5673 5672 5671 5670 5669 5668 5668 5668 5667 5667 5665 5664 5664 5663 5662 5661 5661 5660 5660 5659
5734 5730 5727 5723 5720 5716 5713 5710 5707 5704 5702 5699 5697 5694 5692 5690 5688 5686 5684 5682 5680 5678 5677 5675 5674 5673 5671 5670 5669 5668 5667 5666 5666 5665 5664 5663 5662 5661 5660 5660 5660 5659 5658 5657 5656 5656 5655 5654 5654 5653 5653 5652
5725 5722 5718 5715 5711 5708 5705 5703 5699 5696 5694 5692 5689 5687 5685 5683 5680 5678 5676 5675 5673 5671 5669 5668 5667 5665 5664 5663 5662 5661 5660 5659 5658 5657 5656 5656 5655 5654 5653 5653 5653 5652 5651 5650 5649 5648 5648 5647 5647 5646 5645 5645
5718 5714 5710 5707 5704 5701 5698 5695 5692 5689 5687 5684 5682 5680 5678 5675 5673 5671 5670 5668 5666 5665 5663 5661 5660 5659 5657 5656 5655 5655 5654 5652 5651 5650 5649 5648 5648 5647 5646 5646 5646 5644 5644 5643 5642 5641 5641 5640 5640 5639 5639 5638
5711 5707 5704 5700 5697 5694 5691 5688 5686 5683 5680 5678 5675 5673 5671 5669 5667 5665 5663 5661 5660 5658 5657 5655 5654 5652 5651 5650 5649 5648 5647 5646 5644 5643 5643 5642 5641 5640 5639 5639 5639 5638 5637 5636 5635 5634 5634 5633 5633 5632 5632 5631
5704 5701 5697 5694 5690 5687 5684 5682 5679 5677 5674 5672 5670 5668 5665 5663 5661 5659 5657 5656 5654 5652 5651 5649 5648 5646 5645 5644 5642 5641 5641 5640 5639 5637 5636 5635 5635 5634 5633 5633 5632 5631 5630 5630 5629 5628 5627 5626 5626 5626 5625 5624
5698 5694 5691 5687 5684 5681 5679 5676 5674 5671 5669 5667 5665 5663 5661 5658 5657 5655 5653 5651 5649 5647 5646 5644 5643 5641 5640 5638 5637 5635 5635 5634 5633 5632 5630 5629 5628 5628 5627 5627 5626 5625 5624 5623 5623 5621 5621 5620 5620 5619 5618 5618
5692 5689 5685 5682 5679 5676 5673 5671 5669 5666 5664 5662 5660 5658 5656 5654 5652 5650 5648 5646 5644 5643 5641 5639 5638 5636 5635 5633 5632 5630 5629 5628 5627 5626 5625 5624 5623 5622 5621 5621 5620 5619 5618 5618 5617 5616 5615 5614 5614 5613 5612 5612
5687 5684 5680 5677 5674 5671 5668 5666 5664 5662 5660 5658 5656 5654 5652 5650 5648 5646 5644 5642 5640 5638 5636 5635 5633 5631 5630 5628 5627 5625 5624 5623 5622 5621 5620 5619 5618 5617 5616 5615 5615 5614 5613 5613 5612 5611 5610 5609 5608 5608 5607 5606
5682 5679 5675 5673 5670 5667 5665 5662 5660 5658 5656 5654 5652 5650 5648 5646 5644 5642 5639 5637 5635 5633 5632 5630 5628 5627 5625 5623 5622 5621 5619 5618 5617 5616 5615 5614 5613 5613 5612 5611 5610 5609 5608 5608 5607 5607 5606 5605 5604 5603 5602 5601
5678 5674 5671 5668 5666 5663 5661 5658 5656 5654 5652 5650 5648 5646 5644 5642 5639 5637 5635 5633 5631 5629 5627 5626 5624 5622 5621 5619 5617 5616 5615 5614 5612 5611 5611 5610 5608 5608 5607 5606 5605 5604 5604 5603 5603 5602 5601 5600 5599 5598 5597 5596
5674 5670 5667 5664 5662 5659 5656 5654 5651 5649 5647 5645 5643 5641 5639 5637 5635 5633 5631 5629 5627 5625 5623 5622 5620 5618 5616 5614 5613 5611 5610 5609 5608 5607 5606 5605 5604 5603 5602 5601 5601 5599 5599 5598 5598 5598 5597 5596 5595 5593 5592 5592
5670 5666 5663 5661 5658 5655 5652 5650 5647 5645 5643 5641 5639 5637 5635 5633 5631 5629 5627 5624 5622 5621 5619 5618 5616 5614 5612 5610 5609 5607 5606 5604 5603 5602 5601 5600 5599 5598 5597 5596 5596 5595 5594 5594 5593 5593 5592 5591 5590 5589 5588 5587